#timestamp,LO_Frequency,Hit,StdDev 
1587819615.0,286046985.3,N
1587819615.9,286046985.3,N
1587819635.8,286046985.0,N
1587819655.6,286046976.0,N
1587819675.5,286046978.5,N
1587819695.3,286046975.7,N
1587819715.1,286046977.9,N
1587819735.9,286046975.5,N
1587819755.7,286046968.3,N
1587819775.5,286046968.9,N
1587819795.4,286046961.7,Y
1587819815.2,286046976.9,P
1587819835.1,286046978.0,P
1587819836.0,286046978.0,P
1587819855.8,286046974.3,Y
1587819875.6,286046999.3,P
1587819895.5,286046997.3,N
1587819915.3,286047000.9,N
1587819935.2,286047002.9,N
1587819955.0,286047009.2,N
1587819955.9,286047009.2,N
1587819975.8,286047012.8,N
1587819995.6,286047015.8,N
1587820015.4,286047019.0,N
1587820035.3,286047027.1,N
1587820055.1,286047027.1,N
1587820075.8,286047026.8,N
1587820095.7,286047030.0,N
1587820115.5,286047027.9,N
1587820135.4,286047027.6,N
1587820155.2,286047022.0,N
1587820175.0,286047016.8,N
1587820175.9,286047016.8,N
1587820195.8,286047019.0,N
1587820215.6,286047025.9,N
1587820235.5,286047029.2,N
1587820255.3,286047029.8,N
1587820275.1,286047031.0,N
1587820295.9,286047034.8,N
1587820315.7,286047028.5,N
1587820335.5,286047021.2,N
1587820355.4,286047018.3,N
1587820375.2,286047009.9,N
1587820395.1,286047018.5,N
1587820396.0,286047018.5,N
1587820415.8,286047020.4,N
1587820435.6,286047015.9,N
1587820455.5,286047021.0,N
1587820475.3,286047025.2,Y
1587820495.2,286046995.3,P
1587820515.9,286047000.6,N
1587820535.7,286046997.9,N
1587820555.6,286046995.4,N
1587820575.4,286046998.0,N
1587820595.2,286046993.0,N
1587820615.1,286046988.5,N
1587820616.0,286046988.5,N
1587820635.8,286046986.8,N
1587820655.7,286046986.8,N
1587820675.5,286046985.2,N
1587820695.3,286046983.5,N
1587820715.2,286046978.2,N
1587820735.0,286046977.2,N
1587820735.9,286046977.2,N
1587820755.7,286046979.4,N
1587820775.6,286046975.9,N
1587820795.4,286046974.4,N
1587820815.3,286046973.4,N
1587820835.1,286046973.5,N
1587820855.9,286046983.5,N
1587820875.7,286046987.7,N
1587820895.5,286046994.5,N
1587820915.4,286046999.6,N
1587820935.2,286047002.6,N
1587820955.0,286046997.4,N
1587820955.9,286046997.4,N
1587820975.8,286046997.2,N
1587820995.6,286046997.3,N
1587821015.5,286046996.5,N
1587821035.3,286047000.8,N
1587821055.1,286047001.4,N
1587821075.9,286047007.0,N
1587821095.7,286047005.4,N
1587821115.6,286047009.1,N
1587821135.4,286047008.4,N
1587821155.2,286047008.3,N
1587821175.1,286047005.3,N
1587821176.0,286047005.3,N
1587821195.8,286046999.1,N
1587821215.6,286046994.0,N
1587821235.5,286046993.6,N
1587821255.3,286047000.6,N
1587821275.2,286047000.4,N
1587821295.9,286047002.4,N
1587821315.7,286047008.8,N
1587821335.6,286047010.7,N
1587821355.4,286047014.0,N
1587821375.2,286047010.8,N
1587821395.1,286047006.8,N
1587821396.0,286047006.8,N
1587821415.8,286047007.1,N
1587821435.7,286047008.1,N
1587821455.5,286047012.4,N
1587821475.3,286047012.2,N
1587821495.2,286046996.6,N
1587821515.0,286046996.8,N
1587821515.9,286046996.8,N
1587821535.8,286047001.2,N
1587821555.6,286046998.9,N
1587821575.4,286046998.7,N
1587821595.3,286046987.1,N
1587821615.1,286046983.2,N
1587821635.8,286046982.3,N
1587821655.7,286046985.1,N
1587821675.5,286046980.5,N
1587821695.4,286046974.2,N
1587821715.2,286046971.3,N
1587821735.0,286046975.3,N
1587821735.9,286046975.3,N
1587821755.8,286046967.7,N
1587821775.6,286046964.7,N
1587821795.5,286046963.2,N
1587821815.3,286046965.1,N
1587821835.1,286046966.9,N
1587821855.9,286046968.1,N
1587821875.7,286046973.0,N
1587821895.5,286046979.0,N
1587821915.4,286046979.0,N
1587821935.2,286046982.3,N
1587821955.1,286046985.9,N
1587821956.0,286046985.9,N
1587821975.8,286046985.2,N
1587821995.6,286046985.9,N
1587822015.5,286046984.0,N
1587822035.3,286046982.4,N
1587822055.1,286046977.3,N
1587822075.9,286046974.7,N
1587822095.7,286046969.4,Y
1587822115.6,286046992.0,P
1587822135.4,286046992.6,N
1587822155.2,286046990.2,N
1587822175.1,286046994.2,N
1587822176.0,286046994.2,N
1587822195.8,286046995.2,N
1587822215.7,286046987.4,N
1587822235.5,286046985.6,N
1587822255.3,286046981.6,Y
1587822275.2,286046985.5,P
1587822295.0,286046991.1,P
1587822295.9,286046991.1,P
1587822315.7,286046999.4,N
1587822335.6,286046998.6,N
1587822355.4,286046995.7,N
1587822375.3,286046989.6,N
1587822395.1,286046988.1,N
1587822396.0,286046988.1,N
1587822415.8,286046987.8,N
1587822435.7,286046994.0,N
1587822455.5,286046994.8,N
1587822475.3,286046993.3,N
1587822495.2,286046999.3,N
1587822515.0,286046996.9,N
1587822515.9,286046996.9,N
1587822535.8,286047002.1,N
1587822555.6,286047005.2,N
1587822575.4,286047008.4,N
1587822595.3,286047007.4,N
1587822615.1,286047004.6,N
1587822635.9,286047012.4,N
1587822655.7,286047011.9,N
1587822675.5,286047011.7,N
1587822695.4,286047004.7,N
1587822715.2,286047008.0,N
1587822735.0,286047013.2,N
1587822735.9,286047013.2,N
1587822755.8,286047013.7,N
1587822775.6,286047024.8,N
1587822795.5,286047024.7,N
1587822815.3,286047026.4,N
1587822835.1,286047023.0,N
1587822855.9,286047015.9,N
1587822875.7,286047010.5,N
1587822895.5,286047005.6,N
1587822915.4,286047007.9,N
1587822935.2,286047017.5,N
1587822955.1,286047020.7,N
1587822956.0,286047020.7,N
1587822975.8,286047026.1,N
1587822995.6,286047029.6,Y
1587823015.5,286047017.5,P
1587823035.3,286047020.0,P
1587823055.1,286047016.0,P
1587823075.9,286047017.6,Y
1587823095.7,286046998.3,P
1587823115.6,286046999.1,N
1587823135.4,286046997.1,N
1587823155.2,286047000.9,N
1587823175.1,286046996.8,N
1587823176.0,286046996.8,N
1587823195.8,286046992.5,N
